�N����,����,�~����,�C��,���x,�C��,����,���ϕ���,�ő�u�ԕ���,�ő厞����,���˗�,�I�_���x,�n�����x,�ő啗���N��,DTYPE
"23/12/21","00:10",0.0,1.3,89.5,1010.4,310.6,1.6,2.0,317.8,0.00,-0.2,7.9,"00:06:16",1
"23/12/21","00:20",0.0,1.2,89.4,1010.7,316.0,1.3,1.9,308.7,0.00,-0.3,7.8,"00:11:44",1
"23/12/21","00:30",0.0,1.0,89.5,1010.7,304.1,1.3,2.2,322.6,0.00,-0.5,7.9,"00:22:24",1
"23/12/21","00:40",0.0,1.1,89.7,1010.2,313.7,1.6,2.1,321.8,0.00,-0.4,7.9,"00:36:56",1
"23/12/21","00:50",0.0,0.9,89.8,1010.0,307.1,1.5,2.2,322.5,0.00,-0.5,7.9,"00:40:08",1
"23/12/21","01:00",0.0,0.6,90.3,1010.2,273.2,1.2,1.9,261.4,0.00,-0.8,7.8,"00:58:48",1
"23/12/21","01:10",0.0,1.1,90.6,1009.7,308.1,2.0,2.4,312.5,0.00,-0.2,7.7,"01:01:20",1
"23/12/21","01:20",0.0,1.3,90.7,1009.5,301.2,1.8,2.7,266.1,0.00,0.0,7.7,"01:16:24",1
"23/12/21","01:30",0.0,1.3,90.8,1010.0,287.9,1.8,2.7,314.6,0.00,0.0,7.6,"01:23:52",1
"23/12/21","01:40",0.0,1.3,90.9,1009.7,288.1,1.7,2.0,308.1,0.00,0.0,7.8,"01:35:04",1
"23/12/21","01:50",0.0,1.4,90.9,1010.0,292.6,1.8,2.5,315.5,0.00,0.1,7.3,"01:41:44",1
"23/12/21","02:00",0.0,1.5,90.7,1009.7,298.6,1.8,2.5,334.1,0.00,0.2,7.7,"01:59:44",1
"23/12/21","02:10",0.0,1.5,90.5,1010.0,317.0,2.0,2.6,334.2,0.00,0.2,7.6,"02:09:36",1
"23/12/21","02:20",0.0,1.4,90.3,1010.0,311.9,2.0,2.6,326.6,0.00,0.0,7.6,"02:11:52",1
"23/12/21","02:30",0.0,1.4,89.9,1009.7,291.7,1.6,2.0,309.2,0.00,0.0,7.3,"02:27:44",1
"23/12/21","02:40",0.0,1.5,89.6,1009.5,318.3,2.5,3.4,308.5,0.00,0.0,7.2,"02:32:16",1
"23/12/21","02:50",0.0,1.6,88.8,1009.7,308.6,2.5,3.6,323.5,0.00,0.0,7.2,"02:40:56",1
"23/12/21","03:00",0.0,1.7,88.0,1010.0,310.2,2.3,3.2,330.6,0.00,0.0,7.4,"02:55:44",1
"23/12/21","03:10",0.0,1.8,87.1,1010.0,299.6,2.1,3.1,314.6,0.00,-0.1,7.2,"03:05:38",1
"23/12/21","03:20",0.0,2.1,86.1,1010.0,308.8,2.2,3.4,329.2,0.00,0.1,7.4,"03:19:48",1
"23/12/21","03:30",0.0,2.5,84.6,1010.0,312.0,2.7,3.9,322.8,0.00,0.2,7.2,"03:25:08",1
"23/12/21","03:40",0.0,2.8,82.8,1010.0,319.3,3.0,3.9,319.1,0.00,0.2,7.3,"03:38:22",1
"23/12/21","03:50",0.0,2.9,80.7,1009.7,295.6,2.5,3.6,320.2,0.00,0.0,7.3,"03:42:34",1
"23/12/21","04:00",0.0,2.7,79.6,1010.0,279.0,2.0,3.7,264.9,0.00,-0.4,7.2,"03:58:22",1
"23/12/21","04:10",0.0,2.9,79.1,1010.4,294.0,2.5,3.3,260.4,0.00,-0.3,7.3,"04:01:38",1
"23/12/21","04:20",0.0,3.0,78.3,1010.4,324.9,3.0,4.0,326.2,0.00,-0.4,7.2,"04:14:58",1
"23/12/21","04:30",0.0,3.2,77.9,1010.4,322.6,3.4,5.7,332.5,0.00,-0.2,7.4,"04:28:12",1
"23/12/21","04:40",0.0,3.0,77.4,1010.4,319.2,3.0,4.7,342.1,0.00,-0.5,7.0,"04:31:32",1
"23/12/21","04:50",0.0,3.2,77.0,1010.4,323.6,3.9,5.1,339.5,0.00,-0.4,7.2,"04:46:46",1
"23/12/21","05:00",0.0,3.2,76.8,1010.4,324.8,3.9,6.8,317.3,0.00,-0.4,7.1,"04:55:28",1
"23/12/21","05:10",0.0,3.1,76.6,1010.4,321.3,3.5,5.6,345.9,0.00,-0.6,7.1,"05:03:48",1
"23/12/21","05:20",0.0,3.0,76.5,1010.7,316.8,3.0,4.2,293.3,0.00,-0.7,7.2,"05:14:18",1
"23/12/21","05:30",0.0,3.0,76.6,1010.7,316.0,3.0,5.4,323.5,0.00,-0.7,7.0,"05:22:50",1
"23/12/21","05:40",0.0,2.9,77.0,1010.9,301.9,2.6,4.0,332.8,0.00,-0.7,7.1,"05:36:20",1
"23/12/21","05:50",0.0,2.9,77.4,1011.2,321.9,3.4,5.0,343.2,0.00,-0.6,7.2,"05:45:22",1
"23/12/21","06:00",0.0,2.8,77.4,1010.9,324.6,3.7,5.1,306.6,0.00,-0.7,7.2,"05:52:16",1
"23/12/21","06:10",0.0,2.7,77.6,1011.2,320.6,3.4,5.4,319.7,0.00,-0.8,7.1,"06:04:02",1
"23/12/21","06:20",0.0,2.4,78.0,1010.9,310.6,2.6,3.9,313.1,0.00,-1.0,7.2,"06:14:52",1
"23/12/21","06:30",0.0,2.5,78.5,1011.4,309.4,2.8,4.2,306.9,0.00,-0.8,7.1,"06:26:40",1
"23/12/21","06:40",0.0,2.3,78.8,1011.6,303.2,2.6,4.4,306.6,0.00,-1.0,7.1,"06:33:52",1
"23/12/21","06:50",0.0,2.2,79.2,1011.4,301.2,2.3,3.3,329.7,0.00,-1.0,7.2,"06:45:54",1
"23/12/21","07:00",0.0,2.1,79.5,1011.6,312.1,2.5,4.7,314.8,0.00,-1.0,7.1,"06:54:56",1
"23/12/21","07:10",0.0,2.0,79.8,1011.9,294.6,2.3,4.2,312.6,0.00,-1.1,7.2,"07:06:16",1
"23/12/21","07:20",0.0,2.1,79.8,1011.6,298.2,2.5,4.4,332.6,0.00,-1.0,7.0,"07:12:50",1
"23/12/21","07:30",0.0,2.0,79.7,1011.4,295.0,2.2,3.2,322.7,0.00,-1.1,7.0,"07:26:32",1
"23/12/21","07:40",0.0,2.2,79.6,1011.6,289.7,2.5,5.0,312.0,0.00,-0.9,7.2,"07:37:56",1
"23/12/21","07:50",0.0,2.4,79.2,1011.9,278.6,3.0,4.9,252.7,0.01,-0.8,7.1,"07:47:18",1
"23/12/21","08:00",0.0,2.6,78.3,1011.9,287.6,3.4,6.3,264.2,0.04,-0.8,7.1,"07:58:10",1
"23/12/21","08:10",0.0,2.9,76.4,1012.1,287.8,3.7,5.6,267.6,0.06,-0.8,6.9,"08:07:28",1
"23/12/21","08:20",0.0,3.2,74.2,1012.3,293.3,4.0,7.7,317.5,0.09,-0.9,6.9,"08:17:20",1
"23/12/21","08:30",0.0,3.4,72.1,1012.8,283.1,4.1,6.2,327.1,0.12,-1.1,7.1,"08:23:52",1
"23/12/21","08:40",0.0,3.6,70.6,1013.0,282.5,4.6,7.5,281.3,0.15,-1.2,7.1,"08:39:28",1
"23/12/21","08:50",0.0,3.8,68.2,1013.0,276.1,5.2,10.1,240.5,0.18,-1.5,7.0,"08:44:48",1
"23/12/21","09:00",0.0,4.0,65.5,1013.0,268.9,4.7,8.0,247.8,0.21,-1.8,6.8,"08:57:36",1
"23/12/21","09:10",0.0,4.5,63.4,1013.5,279.6,3.6,5.9,299.9,0.23,-1.8,6.8,"09:04:00",1
"23/12/21","09:20",0.0,4.4,58.9,1013.8,274.5,4.6,7.3,299.4,0.26,-2.9,6.9,"09:10:16",1
"23/12/21","09:30",0.0,4.7,57.3,1013.8,272.3,4.2,7.2,304.4,0.28,-3.0,7.0,"09:22:32",1
"23/12/21","09:40",0.0,4.7,55.1,1014.2,265.6,4.5,9.6,297.1,0.31,-3.5,7.1,"09:32:50",1
"23/12/21","09:50",0.0,5.0,53.8,1014.2,270.3,4.4,9.5,299.0,0.33,-3.5,7.0,"09:43:22",1
"23/12/21","10:00",0.0,5.3,52.4,1014.0,275.2,3.9,8.3,292.4,0.35,-3.6,7.1,"09:58:10",1
"23/12/21","10:10",0.0,5.3,50.6,1014.0,266.3,3.7,7.4,246.7,0.37,-4.1,7.2,"10:00:38",1
"23/12/21","10:20",0.0,5.5,49.6,1014.2,283.0,3.5,6.3,240.9,0.38,-4.2,7.1,"10:19:56",1
"23/12/21","10:30",0.0,5.7,48.6,1014.2,276.6,3.9,7.0,247.8,0.40,-4.2,7.0,"10:27:20",1
"23/12/21","10:40",0.0,5.8,47.8,1014.0,279.1,3.6,7.0,280.5,0.42,-4.4,7.2,"10:33:44",1
"23/12/21","10:50",0.0,6.1,47.0,1014.2,278.9,3.6,5.8,306.7,0.43,-4.3,7.2,"10:41:40",1
"23/12/21","11:00",0.0,6.0,45.9,1014.0,279.4,3.7,7.1,276.1,0.44,-4.7,7.2,"10:57:20",1
"23/12/21","11:10",0.0,6.1,45.4,1014.2,287.0,4.0,6.2,342.6,0.45,-4.8,7.3,"11:00:24",1
"23/12/21","11:20",0.0,5.9,44.9,1014.2,290.5,4.0,7.4,336.5,0.46,-5.1,7.3,"11:18:42",1
"23/12/21","11:30",0.0,6.2,44.0,1014.0,287.3,4.2,7.2,277.0,0.48,-5.1,7.6,"11:23:52",1
"23/12/21","11:40",0.0,6.2,44.0,1013.8,308.2,4.7,9.5,328.0,0.50,-5.1,7.5,"11:36:48",1
"23/12/21","11:50",0.0,6.1,44.3,1013.5,298.4,3.9,7.9,331.5,0.29,-5.1,7.4,"11:41:14",1
"23/12/21","12:00",0.0,5.7,44.6,1013.5,265.5,3.5,6.8,250.2,0.22,-5.4,7.9,"11:53:06",1
"23/12/21","12:10",0.0,5.4,43.8,1013.3,272.1,4.2,6.4,253.8,0.18,-5.9,7.7,"12:00:44",1
"23/12/21","12:20",0.0,5.6,44.0,1013.5,281.1,3.7,7.3,334.1,0.18,-5.6,7.6,"12:15:20",1
"23/12/21","12:30",0.0,6.5,43.4,1013.5,267.5,4.2,8.1,292.0,0.52,-5.0,7.9,"12:22:14",1
"23/12/21","12:40",0.0,6.0,43.0,1013.3,282.9,4.5,8.9,239.3,0.28,-5.6,7.7,"12:32:10",1
"23/12/21","12:50",0.0,5.8,43.1,1013.5,292.0,3.2,5.8,342.1,0.15,-5.7,7.8,"12:40:24",1
"23/12/21","13:00",0.0,5.7,43.7,1013.0,260.6,3.6,5.4,257.5,0.16,-5.6,8.0,"12:55:16",1
"23/12/21","13:10",0.0,5.6,40.8,1013.3,288.7,4.1,6.6,312.6,0.11,-6.6,7.8,"13:07:12",1
"23/12/21","13:20",0.0,5.8,39.2,1013.3,283.1,4.5,9.4,242.6,0.30,-7.0,8.0,"13:19:32",1
"23/12/21","13:30",0.0,6.3,38.5,1013.3,277.8,3.7,7.2,252.5,0.42,-6.8,8.0,"13:21:00",1
"23/12/21","13:40",0.0,6.6,38.5,1012.8,284.9,4.0,7.1,336.7,0.43,-6.5,7.9,"13:39:36",1
"23/12/21","13:50",0.0,6.7,38.7,1013.5,294.6,3.1,5.9,311.5,0.39,-6.3,7.9,"13:48:08",1
"23/12/21","14:00",0.0,6.5,36.8,1013.5,288.2,3.5,6.0,321.3,0.34,-7.2,8.2,"13:54:30",1
"23/12/21","14:10",0.0,5.5,39.5,1013.3,299.8,4.2,8.7,336.5,0.16,-7.1,8.1,"14:04:00",1
"23/12/21","14:20",0.0,5.7,41.8,1013.3,303.5,4.2,8.3,322.1,0.24,-6.2,8.0,"14:10:08",1
"23/12/21","14:30",0.0,6.2,40.3,1013.5,310.0,4.1,7.5,338.5,0.31,-6.3,8.3,"14:21:12",1
"23/12/21","14:40",0.0,6.1,38.0,1013.0,270.3,3.7,7.9,225.8,0.29,-7.1,8.2,"14:36:12",1
"23/12/21","14:50",0.0,6.1,36.6,1013.5,287.7,4.2,6.2,278.7,0.27,-7.6,8.3,"14:43:18",1
"23/12/21","15:00",0.0,5.9,35.4,1013.3,276.0,4.0,7.0,307.1,0.24,-8.2,8.4,"14:51:28",1
"23/12/21","15:10",0.0,5.8,36.2,1013.8,280.8,4.2,7.2,336.1,0.21,-8.0,8.3,"15:06:24",1
"23/12/21","15:20",0.0,5.4,37.1,1013.8,299.9,4.7,8.2,315.7,0.19,-8.0,8.5,"15:11:36",1
"23/12/21","15:30",0.0,5.4,37.5,1013.8,271.2,3.9,7.1,227.0,0.16,-7.9,8.3,"15:24:20",1
"23/12/21","15:40",0.0,5.4,37.5,1013.8,275.5,3.7,6.7,276.3,0.13,-7.9,8.3,"15:35:44",1
"23/12/21","15:50",0.0,5.1,37.3,1013.8,277.0,4.0,7.1,254.6,0.10,-8.2,8.6,"15:42:18",1
"23/12/21","16:00",0.0,5.0,37.4,1013.8,290.8,3.7,6.2,320.6,0.08,-8.3,8.2,"15:59:28",1
"23/12/21","16:10",0.0,4.8,38.0,1013.8,285.5,3.2,5.7,325.3,0.04,-8.3,8.3,"16:09:04",1
"23/12/21","16:20",0.0,4.2,39.6,1013.8,283.4,3.1,4.9,331.3,0.00,-8.3,8.5,"16:12:26",1
"23/12/21","16:30",0.0,4.0,38.7,1014.2,279.4,3.1,5.9,314.1,0.00,-8.8,8.5,"16:25:10",1
"23/12/21","16:40",0.0,3.9,39.1,1014.2,283.4,2.8,6.2,304.0,0.00,-8.7,8.3,"16:39:32",1
"23/12/21","16:50",0.0,3.6,41.5,1014.2,278.5,2.5,3.6,261.5,0.00,-8.2,8.3,"16:41:22",1
"23/12/21","17:00",0.0,3.5,43.3,1014.2,280.1,2.1,3.1,292.2,0.00,-7.8,8.0,"16:56:24",1
"23/12/21","17:10",0.0,3.2,44.4,1014.7,285.1,1.8,3.2,259.3,0.00,-7.7,8.0,"17:04:02",1
"23/12/21","17:20",0.0,2.9,43.2,1014.2,280.6,2.2,4.0,248.9,0.00,-8.3,8.2,"17:18:28",1
"23/12/21","17:30",0.0,2.8,42.5,1014.2,297.6,2.3,3.4,331.7,0.00,-8.6,8.1,"17:27:14",1
"23/12/21","17:40",0.0,2.6,42.4,1014.5,293.7,1.8,3.1,249.7,0.00,-8.9,8.2,"17:31:12",1
"23/12/21","17:50",0.0,2.4,43.9,1014.5,298.7,2.0,3.5,303.1,0.00,-8.6,8.0,"17:40:32",1
"23/12/21","18:00",0.0,2.2,45.7,1014.5,273.9,1.7,3.9,243.0,0.00,-8.3,8.0,"17:59:26",1
"23/12/21","18:10",0.0,2.2,45.8,1014.5,280.4,2.0,4.2,247.1,0.00,-8.2,8.0,"18:03:12",1
"23/12/21","18:20",0.0,1.8,48.5,1014.5,302.4,1.7,2.8,312.9,0.00,-7.9,7.8,"18:13:12",1
"23/12/21","18:30",0.0,1.9,48.9,1014.5,262.9,2.3,4.1,240.9,0.00,-7.7,7.9,"18:29:06",1
"23/12/21","18:40",0.0,2.0,48.3,1014.9,262.5,2.5,5.1,245.3,0.00,-7.7,7.7,"18:37:58",1
"23/12/21","18:50",0.0,1.9,49.1,1014.7,261.2,2.5,4.0,242.5,0.00,-7.6,7.8,"18:48:52",1
"23/12/21","19:00",0.0,1.8,49.8,1015.2,273.0,3.0,4.9,267.4,0.00,-7.5,7.7,"18:57:48",1
"23/12/21","19:10",0.0,1.7,51.0,1015.2,254.2,2.8,5.5,234.9,0.00,-7.3,7.7,"19:08:48",1
"23/12/21","19:20",0.0,1.6,51.8,1015.2,258.5,2.6,5.1,240.3,0.00,-7.2,7.8,"19:14:24",1
"23/12/21","19:30",0.0,1.4,52.8,1015.4,274.6,2.2,3.4,255.7,0.00,-7.1,7.6,"19:20:32",1
"23/12/21","19:40",0.0,1.0,54.9,1015.4,307.0,2.0,2.8,325.2,0.00,-7.0,7.7,"19:33:12",1
"23/12/21","19:50",0.0,0.7,56.9,1015.9,306.4,2.2,4.7,355.8,0.00,-6.8,7.6,"19:46:00",1
"23/12/21","20:00",0.0,1.0,55.9,1015.2,279.7,2.3,3.9,258.8,0.00,-6.8,7.6,"19:59:44",1
"23/12/21","20:10",0.0,1.3,54.5,1015.2,280.9,3.0,4.4,290.6,0.00,-6.8,7.4,"20:08:08",1
"23/12/21","20:20",0.0,1.2,54.3,1015.6,283.7,3.1,5.9,241.8,0.00,-7.0,7.6,"20:15:46",1
"23/12/21","20:30",0.0,1.1,54.4,1014.9,292.7,2.7,4.4,313.2,0.00,-7.0,7.3,"20:26:28",1
"23/12/21","20:40",0.0,1.1,54.2,1014.9,276.5,3.0,5.1,311.2,0.00,-7.1,7.4,"20:39:42",1
"23/12/21","20:50",0.0,1.2,53.4,1015.4,267.0,3.5,6.0,243.5,0.00,-7.2,7.2,"20:41:02",1
"23/12/21","21:00",0.0,1.0,53.6,1015.2,282.6,2.8,8.6,234.9,0.00,-7.3,7.2,"20:54:06",1
"23/12/21","21:10",0.0,1.0,53.0,1015.4,282.5,2.8,4.8,259.8,0.00,-7.5,7.2,"21:02:44",1
"23/12/21","21:20",0.0,0.8,54.1,1015.2,312.2,2.8,4.7,306.4,0.00,-7.4,7.3,"21:10:40",1
"23/12/21","21:30",0.0,0.8,54.6,1015.4,317.7,3.6,8.0,349.2,0.00,-7.3,7.2,"21:21:12",1
"23/12/21","21:40",0.0,0.7,55.0,1015.6,312.1,3.2,6.5,351.7,0.00,-7.3,7.1,"21:32:04",1
"23/12/21","21:50",0.0,0.8,54.8,1015.6,305.0,3.4,7.5,348.1,0.00,-7.2,7.0,"21:43:32",1
"23/12/21","22:00",0.0,0.7,55.0,1015.6,305.9,2.8,5.6,318.9,0.00,-7.3,7.0,"21:56:24",1
"23/12/21","22:10",0.0,0.6,55.7,1015.4,323.2,2.6,4.7,335.1,0.00,-7.2,7.0,"22:09:28",1
"23/12/21","22:20",0.0,0.5,56.1,1015.6,317.4,3.0,5.4,319.5,0.00,-7.2,6.9,"22:15:12",1
"23/12/21","22:30",0.0,0.2,56.8,1015.4,297.0,1.6,2.7,295.7,0.00,-7.3,6.8,"22:21:44",1
"23/12/21","22:40",0.0,0.4,56.9,1015.6,297.8,2.3,4.4,240.0,0.00,-7.1,7.1,"22:31:44",1
"23/12/21","22:50",0.0,0.1,57.5,1015.6,311.6,2.0,3.5,345.4,0.00,-7.2,6.8,"22:41:12",1
"23/12/21","23:00",0.0,0.1,58.3,1015.6,319.5,2.2,4.7,323.1,0.00,-7.1,6.9,"22:55:36",1
"23/12/21","23:10",0.0,-0.1,58.8,1014.9,304.5,1.2,2.7,339.3,0.00,-7.1,6.8,"23:01:52",1
"23/12/21","23:20",0.0,0.0,58.7,1015.2,280.5,1.7,4.0,249.9,0.00,-7.1,6.7,"23:11:12",1
"23/12/21","23:30",0.0,-0.4,59.9,1015.2,311.1,1.5,3.1,310.5,0.00,-7.2,6.8,"23:23:20",1
"23/12/21","23:40",0.0,-0.4,60.5,1014.7,295.4,1.1,2.8,337.6,0.00,-7.1,6.7,"23:30:40",1
"23/12/21","23:50",0.0,-0.9,62.4,1015.2,336.7,1.2,2.7,325.3,0.00,-7.1,6.7,"23:40:48",1
"23/12/21","24:00",0.0,-0.6,62.8,1014.7,340.7,1.1,2.6,337.4,0.00,-6.8,6.8,"23:59:20",1
